This demonstration page uses our WeatherBlox Daily Observations layout. Learn more.

38.89511, -77.03637

Hourly Observations for October 31, 2018

Temp ( °F °C ) Dew Point ( °F °C ) Humidity (%) Winds ( mph kmh ) Pressure ( in mb ) Visibility ( mi km ) Precip ( " mm )
12:52 am 00:52 Mostly Cloudy 50 10 45 7.2 83 83 S 3 6 30.14 1021 10 16.0934 0 0
1:52 am 01:52 Mostly Cloudy 49 9.4 44 6.7 83 83 W 3 6 30.13 1020 10 16.0934 0 0
2:52 am 02:52 Mostly Clear 49 9.4 45 7.2 86 86 Calm 30.12 1020 10 16.0934 0 0
3:52 am 03:52 Mostly Clear 49 9.4 44 6.7 83 83 SW 3 6 30.11 1020 10 16.0934 0 0
4:52 am 04:52 Mostly Cloudy 50 10 43 6.1 77 77 Calm 30.13 1020 10 16.0934 0 0
5:52 am 05:52 Partly Cloudy 49 9.4 43 6.1 80 80 Calm 30.11 1020 10 16.0934 0 0
6:52 am 06:52 Mostly Cloudy 48 8.9 43 6.1 83 83 WSW 5 7 30.11 1020 10 16.0934 0 0
7:52 am 07:52 Sunny 48 8.9 43 6.1 83 83 SW 5 7 30.11 1020 10 16.0934 0 0
8:52 am 08:52 Mostly Cloudy 51 10.6 45 7.2 80 80 SSW 7 11 30.11 1020 10 16.0934 0 0
9:52 am 09:52 Mostly Cloudy 53 11.7 46 7.8 77 77 S 8 13 30.1 1019 10 16.0934 0 0
10:52 am 10:52 Mostly Cloudy 56 13.3 46 7.8 70 70 S 12 19 30.08 1019 10 16.0934 0 0
11:52 am 11:52 Mostly Cloudy 60 15.6 47 8.3 62 62 S 9 15 30.07 1018 10 16.0934 0 0
12:52 pm 12:52 Mostly Cloudy 62 16.7 47 8.3 58 58 S 8 13 30.04 1017 10 16.0934 0 0
1:52 pm 13:52 Mostly Cloudy 65 18.3 49 9.4 56 56 S 9 15 30 1016 10 16.0934 0 0
2:52 pm 14:52 Mostly Cloudy 69 20.6 49 9.4 49 49 S 13 20 29.98 1015 10 16.0934 0 0
3:52 pm 15:52 Mostly Cloudy 64 17.8 50 10 60 60 S 7 11 29.96 1015 10 16.0934 0 0
4:52 pm 16:52 Mostly Cloudy 66 18.9 51 10.6 59 59 S 7 11 29.95 1014 10 16.0934 0 0
5:52 pm 17:52 Mostly Cloudy 63 17.2 51 10.6 65 65 S 9 15 29.96 1014 10 16.0934 0 0
6:52 pm 18:52 Mostly Cloudy 61 16.1 52 11.1 72 72 S 9 15 29.96 1015 10 16.0934 0 0
7:52 pm 19:52 Mostly Cloudy 62 16.7 52 11.1 70 70 S 8 13 29.97 1015 10 16.0934 0 0
8:52 pm 20:52 Mostly Cloudy 61 16.1 52 11.1 72 72 S 9 15 29.97 1015 10 16.0934 0 0
9:52 pm 21:52 Mostly Cloudy 59 15 52 11.1 78 78 S 12 19 29.96 1014 10 16.0934 0 0
10:52 pm 22:52 Mostly Cloudy 59 15 52 11.1 78 78 S 8 13 29.96 1015 10 16.0934 0 0
11:52 pm 23:52 Mostly Cloudy 59 15 52 11.1 78 78 S 8 13 29.94 1014 10 16.0934 0 0

Powered by AerisWeather